This demonstration page uses our WeatherBlox Daily Observations layout. Learn more.

Left ArrowRight Arrow

39.08367, -84.50855

Hourly Observations for August 9, 2017

Temp ( °F °C ) Dew Point ( °F °C ) Humidity (%) Winds ( mph kmh ) Pressure ( in mb ) Visibility ( mi km ) Precip ( " mm )
12:53 am 00:53 Clear 57 13.9 57 13.9 100 100 N N/A 30.18 1022 10 16 N/A
1:53 am 01:53 Clear with Mist and Fog 56 13.3 56 13.3 100 100 ENE 3 6 30.18 1022 6 10 N/A
2:31 am 02:31 Clear with Mist and Fog 57 13.9 56 13.3 96 96 N N/A 30.18 1022 2 3 N/A
2:44 am 02:44 Clear with Mist and Fog 56 13.3 56 13.3 100 100 N N/A 30.18 1022 1 1 N/A
2:53 am 02:53 Clear with Mist and Fog 56 13.3 56 13.3 100 100 N N/A 30.19 1022 1 2 N/A
3:01 am 03:01 Clear 56 13.3 56 13.3 100 100 N N/A 30.18 1022 9 14 N/A
3:19 am 03:19 Clear with Mist and Fog 55 12.8 55 12.8 100 100 N N/A 30.18 1022 1 2 N/A
3:23 am 03:23 Clear with Mist and Fog 55 12.8 55 12.8 100 100 N N/A 30.18 1022 3 5 N/A
3:53 am 03:53 Clear 55 12.8 55 12.8 100 100 N N/A 30.19 1022 8 13 N/A
4:12 am 04:12 Clear with Mist and Fog 55 12.8 55 12.8 100 100 N N/A 30.21 1023 2 3 N/A
4:20 am 04:20 Clear with Mist and Fog 55 12.8 55 12.8 100 100 ENE 3 6 30.21 1023 4 6 N/A
4:53 am 04:53 Clear 54 12.2 53 11.7 97 97 N N/A 30.19 1023 10 16 N/A
5:02 am 05:02 Clear with Mist and Fog 54 12.2 54 12.2 100 100 N N/A 30.21 1023 2 3 N/A
5:08 am 05:08 Clear with Mist and Fog 54 12.2 54 12.2 100 100 N N/A 30.21 1023 3 5 N/A
5:17 am 05:17 Clear with Mist and Fog 55 12.8 54 12.2 96 96 N N/A 30.21 1023 2 3 N/A
5:35 am 05:35 Clear with Mist and Fog 53 11.7 53 11.7 100 100 N N/A 30.21 1023 4 6 N/A
5:48 am 05:48 Partly Cloudy with Mist and Fog 54 12 54 12 100 100 NE 3 6 30.21 1023 5 8 N/A
5:53 am 05:53 Mostly Clear with Mist and Fog 54 12.2 54 12.2 100 100 N N/A 30.20 1023 4 6 N/A
6:04 am 06:04 Mostly Clear with Mist and Fog 54 12.2 54 12.2 100 100 NE 3 6 30.21 1023 2 3 N/A
6:08 am 06:08 Mostly Cloudy with Mist and Fog 53 11.7 53 11.7 100 100 NE 3 6 30.21 1023 1 1 N/A
6:17 am 06:17 Clear with Mist and Fog 53 11.7 53 11.7 100 100 NE 5 7 30.21 1023 1 2 N/A
6:27 am 06:27 Clear with Mist and Fog 53 11.7 53 11.7 100 100 NE 3 6 30.21 1023 2 3 N/A
6:49 am 06:49 Partly Cloudy with Fog 54 12 54 12 100 100 NNE 3 6 30.21 1023 6 10 N/A
6:53 am 06:53 Partly Cloudy with Fog 54 12.2 54 12.2 100 100 N 3 6 30.22 1023 8 13 N/A
7:53 am 07:53 Partly Cloudy with Fog 56 13.3 56 13.3 100 100 ENE 3 6 30.23 1024 6 10 N/A
8:53 am 08:53 Sunny 62 16.7 60 15.6 93 93 N N/A 30.23 1024 10 16 N/A
9:53 am 09:53 Sunny 68 20 60 15.6 76 76 N N/A 30.22 1024 10 16 N/A
10:53 am 10:53 Sunny 73 22.8 64 17.8 74 74 N N/A 30.22 1024 10 16 N/A
11:53 am 11:53 Sunny 77 25 55 12.8 47 47 E 5 7 30.23 1024 10 16 N/A
12:53 pm 12:53 Sunny 79 26.1 57 13.9 47 47 ENE 8 13 30.21 1023 10 16 N/A
1:53 pm 13:53 Sunny 80 26.7 57 13.9 45 45 SSE 8 13 30.19 1022 10 16 N/A
2:53 pm 14:53 Sunny 81 27.2 57 13.9 44 44 ENE 9 15 30.17 1022 10 16 N/A
3:53 pm 15:53 Sunny 83 28.3 56 13.3 40 40 VRB 5 7 30.16 1021 10 16 N/A
4:53 pm 16:53 Sunny 82 27.8 57 13.9 42 42 VRB 5 7 30.14 1021 10 16 N/A
5:53 pm 17:53 Sunny 82 27.8 56 13.3 41 41 ENE 9 15 30.14 1021 10 16 N/A
6:53 pm 18:53 Sunny 80 26.7 57 13.9 45 45 ENE 8 13 30.13 1020 10 16 N/A
7:53 pm 19:53 Sunny 77 25 58 14.4 52 52 ENE 5 7 30.13 1020 10 16 N/A
8:53 pm 20:53 Clear 68 20 61 16.1 78 78 N N/A 30.14 1021 10 16 N/A
9:53 pm 21:53 Clear 64 17.8 61 16.1 90 90 N N/A 30.15 1021 10 16 N/A
10:53 pm 22:53 Clear 62 16.7 61 16.1 96 96 N N/A 30.16 1022 10 16 N/A
11:53 pm 23:53 Clear 62 16.7 61 16.1 96 96 N N/A 30.16 1021 10 16 N/A

Powered by AerisWeather